Hanford, WA
on Tuesday, November 27, 2012

Tuesday
Previous Day Next Day
Daily Summary
 ActualAverage (KMWH)Record (KMWH)
Temperature
Mean Temperature °F 33°F  
Max Temperature 31°F 40°F 53°F (2011)
Min Temperature 27°F 26°F -6°F (1985)
Degree Days
Heating Degree Days 36 32  
Month to date heating degree days 725  
Since 1 July heating degree days 1362  
Cooling Degree Days 0 0  
Month to date cooling degree days 0  
Year to date cooling degree days 615  
Moisture
Dew Point 29°F   
Average Humidity 99    
Maximum Humidity 100    
Minimum Humidity 97    
Precipitation
Precipitation 0.00 in 0.04 in 0.37 in (1986)
Month to date precipitation 1.06  
Year to date precipitation 7.53  
Wind
Wind Speed 3 mph   
Max Wind Speed 5 mph   
Max Gust Speed mph   
Visibility 3 miles   
Events Fog   

Key: T is trace of precipitation, MM is missing value
Source: NWS Daily Summary
Time(PST)TemperatureDew PointHumidity Pressure Visibility Wind DirectionWind SpeedGust SpeedPrecipitationEvents Conditions
12:50 AM 27.7°F 27.5°F 99% 30.27 in 0.1 miles SSE 4.6 mph - N/A Fog Light Freezing Fog
1:50 AM 28.6°F 28.6°F 100% 30.27 in 0.1 miles ESE 4.6 mph - N/A Fog Light Freezing Fog
2:50 AM 28.9°F 28.9°F 100% 30.27 in 0.1 miles SE 1.2 mph - N/A Fog Light Freezing Fog
3:50 AM 28.8°F 28.2°F 98% 30.26 in 0.1 miles ESE 2.3 mph - N/A Fog Light Freezing Fog
4:50 AM 28.8°F 28.2°F 98% 30.26 in 0.1 miles East 2.3 mph - N/A Fog Light Freezing Fog
5:50 AM 28.8°F 28.2°F 98% 30.26 in 15.0 miles ESE 2.3 mph - N/A Fog Light Freezing Fog
6:50 AM 27.3°F 27.3°F 100% 30.27 in 0.1 miles WSW 4.6 mph - N/A Fog Light Freezing Fog
7:50 AM 27.3°F 27.3°F 100% 30.27 in 0.1 miles South 2.3 mph - N/A Fog Light Freezing Fog
8:50 AM 27.1°F 27.1°F 100% 30.29 in 0.1 miles SSW 2.3 mph - N/A Fog Light Freezing Fog
9:50 AM 28.0°F 28.0°F 100% 30.30 in 0.2 miles SSE 3.5 mph - N/A Fog Light Freezing Fog
10:50 AM 29.7°F 29.3°F 99% 30.30 in 0.5 miles NE 4.6 mph - N/A Fog Light Freezing Fog
11:50 AM 30.4°F 29.8°F 98% 30.29 in 0.8 miles WNW 3.5 mph - N/A   Mist
12:50 PM 31.3°F 31.1°F 99% 30.27 in 0.8 miles NNE 2.3 mph - N/A   Mist
1:50 PM 30.9°F 30.7°F 99% 30.26 in 1.0 miles East 2.3 mph - N/A   Overcast
2:50 PM 31.3°F 30.7°F 98% 30.26 in 4.0 miles South 2.3 mph - N/A   Overcast
3:50 PM 31.3°F 30.7°F 98% 30.22 in 6.0 miles South 3.5 mph - N/A   Overcast
4:50 PM 28.9°F 28.2°F 97% 30.22 in 8.0 miles SW 4.6 mph - N/A   Mostly Cloudy
5:50 PM 27.1°F 27.0°F 99% 30.21 in 7.0 miles ESE 2.3 mph - N/A   Overcast
6:50 PM 27.9°F 27.5°F 99% 30.20 in 4.0 miles SE 2.3 mph - N/A   Overcast
9:50 PM 30.6°F 30.6°F 100% 30.17 in 3.0 miles SSE 2.3 mph - N/A   Overcast
10:50 PM 30.7°F 30.7°F 100% 30.16 in 3.0 miles SSE 3.5 mph - N/A   Overcast
11:50 PM 30.7°F 30.7°F 100% 30.15 in 3.0 miles South 2.3 mph - N/A   Overcast
Moon Phase
Nov. 27 Nov. 28 Dec. 06 Dec. 13 Dec. 20
Sunrise:07:17 AM (PST) Moon Rise:03:50 PM (PST)11/27
Sunset:04:14 PM (PST) Moon Set:06:25 AM (PST)11/27

Copyright © 2014 The Weather Underground, Inc.